• In Netherlands
  • List of Countries
  • For 7 days
  • Water Temperature
  • Satellite Maps
  • Weather Map
  • Weather Widgets
  • user-avatar
    Login

    Hourly Weather Malanje

    Today, 22 September, Friday

    Time Temperature Precipitation Wind Pressure Humidity
    00:00 +24°C° 0 mm 3 mps 665 mmHg 62%
    01:00 +22°C° 0 mm 3 mps 665 mmHg 67%
    02:00 +22°C° 0 mm 3 mps 665 mmHg 70%
    03:00 +21°C° 0 mm 2 mps 664 mmHg 73%
    04:00 +20°C° 0 mm 2 mps 664 mmHg 76%
    05:00 +21°C° 0 mm 2 mps 665 mmHg 75%
    06:00 +21°C° 0 mm 2 mps 665 mmHg 74%
    07:00 +21°C° 0 mm 2 mps 666 mmHg 73%
    08:00 +26°C° 0 mm 2 mps 666 mmHg 61%
    09:00 +29°C° 0 mm 2 mps 667 mmHg 48%
    10:00 +34°C° 0 mm 2 mps 668 mmHg 36%
    11:00 +34°C° 0 mm 1 mps 668 mmHg 32%
    12:00 +36°C° 0 mm 1 mps 667 mmHg 28%
    13:00 +37°C° 0 mm 1 mps 667 mmHg 24%
    14:00 +36°C° 0 mm 1 mps 666 mmHg 25%
    15:00 +36°C° 0 mm 1 mps 666 mmHg 26%
    16:00 +35°C° 0 mm 1 mps 665 mmHg 26%
    17:00 +33°C° 0.2 mm 1 mps 665 mmHg 32%
    18:00 +30°C° 0.2 mm 2 mps 665 mmHg 38%
    19:00 +28°C° 0.2 mm 2 mps 665 mmHg 44%
    20:00 +27°C° 0.1 mm 2 mps 665 mmHg 50%
    21:00 +26°C° 0.1 mm 2 mps 666 mmHg 56%
    22:00 +25°C° 0.1 mm 2 mps 666 mmHg 62%
    23:00 +24°C° 0.1 mm 2 mps 666 mmHg 65%

    Tomorrow, 23 September, Saturday

    Time Temperature Precipitation Wind Pressure Humidity
    00:00 +24°C° 0.1 mm 2 mps 666 mmHg 67%
    01:00 +22°C° 0.1 mm 3 mps 665 mmHg 70%
    02:00 +21°C° 0 mm 3 mps 665 mmHg 75%
    03:00 +20°C° 0 mm 3 mps 665 mmHg 79%
    04:00 +19°C° 0 mm 3 mps 664 mmHg 83%
    05:00 +19°C° 0 mm 3 mps 665 mmHg 82%
    06:00 +19°C° 0 mm 3 mps 665 mmHg 81%
    07:00 +19°C° 0 mm 3 mps 665 mmHg 80%
    08:00 +24°C° 0 mm 2 mps 666 mmHg 68%
    09:00 +27°C° 0 mm 2 mps 667 mmHg 56%
    10:00 +30°C° 0 mm 2 mps 668 mmHg 44%
    11:00 +32°C° 0 mm 2 mps 667 mmHg 37%
    12:00 +36°C° 0 mm 2 mps 667 mmHg 31%
    13:00 +39°C° 0 mm 1 mps 667 mmHg 25%
    14:00 +36°C° 0 mm 1 mps 666 mmHg 26%
    15:00 +35°C° 0 mm 1 mps 665 mmHg 27%
    16:00 +34°C° 0 mm 1 mps 664 mmHg 28%
    17:00 +32°C° 0 mm 2 mps 665 mmHg 31%
    18:00 +31°C° 0 mm 2 mps 665 mmHg 34%
    19:00 +30°C° 0 mm 2 mps 665 mmHg 37%
    20:00 +28°C° 0 mm 2 mps 665 mmHg 42%
    21:00 +27°C° 0 mm 3 mps 666 mmHg 47%
    22:00 +26°C° 0 mm 3 mps 666 mmHg 52%
    23:00 +24°C° 0 mm 3 mps 666 mmHg 58%

    Day after tomorrow, 24 September, Sunday

    Time Temperature Precipitation Wind Pressure Humidity
    00:00 +22°C° 0 mm 3 mps 665 mmHg 65%
    01:00 +21°C° 0 mm 3 mps 665 mmHg 71%
    02:00 +20°C° 0 mm 3 mps 665 mmHg 76%
    03:00 +20°C° 0 mm 3 mps 664 mmHg 80%
    04:00 +19°C° 0 mm 3 mps 664 mmHg 84%
    05:00 +19°C° 0 mm 3 mps 665 mmHg 82%
    06:00 +20°C° 0 mm 3 mps 665 mmHg 80%
    07:00 +20°C° 0 mm 3 mps 666 mmHg 78%
    08:00 +22°C° 0 mm 3 mps 667 mmHg 68%
    09:00 +26°C° 0 mm 3 mps 667 mmHg 59%
    10:00 +28°C° 0 mm 3 mps 668 mmHg 49%
    11:00 +30°C° 0 mm 3 mps 667 mmHg 42%
    12:00 +34°C° 0 mm 2 mps 667 mmHg 36%
    13:00 +36°C° 0 mm 2 mps 666 mmHg 29%
    14:00 +36°C° 0 mm 2 mps 666 mmHg 29%
    15:00 +35°C° 0 mm 2 mps 665 mmHg 29%
    16:00 +35°C° 0 mm 2 mps 665 mmHg 29%
    17:00 +33°C° 0 mm 3 mps 665 mmHg 34%
    18:00 +30°C° 0 mm 3 mps 665 mmHg 38%
    19:00 +28°C° 0 mm 3 mps 665 mmHg 42%
    20:00 +27°C° 0.1 mm 3 mps 665 mmHg 46%
    21:00 +26°C° 0.1 mm 3 mps 666 mmHg 50%
    22:00 +25°C° 0.1 mm 3 mps 666 mmHg 53%
    23:00 +24°C° 0 mm 3 mps 665 mmHg 60%

    25 September, Monday

    Time Temperature Precipitation Wind Pressure Humidity
    00:00 +22°C° 0 mm 3 mps 665 mmHg 66%
    01:00 +21°C° 0 mm 3 mps 664 mmHg 72%
    02:00 +20°C° 0 mm 4 mps 664 mmHg 76%
    03:00 +19°C° 0 mm 4 mps 664 mmHg 80%
    04:00 +19°C° 0 mm 4 mps 664 mmHg 83%
    05:00 +19°C° 0 mm 4 mps 664 mmHg 81%
    06:00 +19°C° 0 mm 4 mps 665 mmHg 79%
    07:00 +19°C° 0 mm 3 mps 666 mmHg 77%
    08:00 +22°C° 0 mm 3 mps 666 mmHg 67%
    09:00 +26°C° 0 mm 3 mps 667 mmHg 56%
    10:00 +28°C° 0 mm 3 mps 667 mmHg 45%
    11:00 +30°C° 0 mm 3 mps 667 mmHg 40%
    12:00 +34°C° 0 mm 3 mps 666 mmHg 34%
    13:00 +36°C° 0 mm 2 mps 665 mmHg 29%
    14:00 +35°C° 0 mm 3 mps 665 mmHg 29%
    15:00 +35°C° 0 mm 3 mps 664 mmHg 30%
    16:00 +34°C° 0 mm 3 mps 664 mmHg 30%
    17:00 +31°C° 0 mm 3 mps 664 mmHg 35%
    18:00 +30°C° 0 mm 4 mps 664 mmHg 40%
    19:00 +28°C° 0 mm 4 mps 664 mmHg 44%
    20:00 +26°C° 0.2 mm 4 mps 664 mmHg 49%
    21:00 +25°C° 0.2 mm 3 mps 665 mmHg 54%
    22:00 +24°C° 0.2 mm 3 mps 665 mmHg 58%
    23:00 +22°C° 0 mm 3 mps 665 mmHg 62%

    26 September, Tuesday

    Time Temperature Precipitation Wind Pressure Humidity
    00:00 +21°C° 0 mm 3 mps 664 mmHg 66%
    01:00 +21°C° 0 mm 3 mps 664 mmHg 71%
    02:00 +20°C° 0 mm 3 mps 664 mmHg 75%
    03:00 +19°C° 0 mm 3 mps 664 mmHg 79%
    04:00 +19°C° 0 mm 2 mps 664 mmHg 83%
    05:00 +19°C° 0 mm 2 mps 664 mmHg 81%
    06:00 +19°C° 0 mm 2 mps 665 mmHg 79%
    07:00 +20°C° 0 mm 2 mps 665 mmHg 77%
    08:00 +24°C° 0 mm 3 mps 666 mmHg 63%
    09:00 +27°C° 0 mm 3 mps 666 mmHg 49%
    10:00 +31°C° 0 mm 3 mps 667 mmHg 35%
    11:00 +34°C° 0 mm 3 mps 666 mmHg 31%
    12:00 +36°C° 0 mm 3 mps 665 mmHg 27%
    13:00 +38°C° 0 mm 2 mps 665 mmHg 23%
    14:00 +37°C° 0 mm 2 mps 664 mmHg 24%
    15:00 +36°C° 0 mm 2 mps 664 mmHg 25%
    16:00 +35°C° 0 mm 3 mps 663 mmHg 26%
    17:00 +33°C° 0 mm 3 mps 663 mmHg 30%
    18:00 +30°C° 0 mm 3 mps 664 mmHg 34%
    19:00 +28°C° 0 mm 3 mps 664 mmHg 38%
    20:00 +27°C° 0 mm 3 mps 664 mmHg 44%
    21:00 +26°C° 0 mm 3 mps 664 mmHg 49%
    22:00 +25°C° 0 mm 4 mps 664 mmHg 55%
    23:00 +22°C° 0 mm 3 mps 664 mmHg 61%

    27 September, Wednesday

    Time Temperature Precipitation Wind Pressure Humidity
    00:00 +21°C° 0 mm 3 mps 664 mmHg 68%
    01:00 +20°C° 0 mm 3 mps 663 mmHg 74%
    02:00 +20°C° 0 mm 3 mps 664 mmHg 77%
    03:00 +19°C° 0 mm 3 mps 664 mmHg 80%
    04:00 +19°C° 0 mm 3 mps 664 mmHg 83%
    05:00 +19°C° 0 mm 3 mps 664 mmHg 81%
    06:00 +19°C° 0 mm 3 mps 665 mmHg 78%
    07:00 +19°C° 0 mm 2 mps 665 mmHg 76%
    08:00 +23°C° 0.1 mm 2 mps 666 mmHg 63%
    09:00 +27°C° 0.1 mm 2 mps 667 mmHg 49%
    10:00 +30°C° 0.1 mm 2 mps 667 mmHg 36%
    11:00 +32°C° 0 mm 2 mps 667 mmHg 32%
    12:00 +35°C° 0 mm 2 mps 666 mmHg 28%
    13:00 +37°C° 0 mm 2 mps 665 mmHg 24%
    14:00 +36°C° 0 mm 2 mps 665 mmHg 25%
    15:00 +35°C° 0 mm 2 mps 664 mmHg 27%
    16:00 +34°C° 0 mm 2 mps 664 mmHg 28%
    17:00 +32°C° 0 mm 2 mps 664 mmHg 31%
    18:00 +30°C° 0 mm 2 mps 664 mmHg 35%
    19:00 +29°C° 0 mm 2 mps 665 mmHg 38%
    20:00 +28°C° 0.1 mm 3 mps 665 mmHg 41%
    21:00 +27°C° 0.1 mm 3 mps 665 mmHg 45%
    22:00 +26°C° 0.1 mm 3 mps 665 mmHg 48%
    23:00 +24°C° 0 mm 3 mps 665 mmHg 55%
    Show more